This demonstration page uses our WeatherBlox Daily Observations layout. Learn more.

Left ArrowRight Arrow

36.17497, -115.13722

Hourly Observations for June 24, 2022

Temp ( °F °C ) Dew Point ( °F °C ) Humidity (%) Winds ( mph kmh ) Pressure ( in mb ) Visibility ( mi km ) Precip ( " mm )
12:53 am 00:53 Clear 86 30 43 6.1 22 22 NNW 13 20 29.81 1009 10 16 0.00 0.00
1:53 am 01:53 Clear 84 28.9 42 5.6 23 23 NW 6 9 29.81 1010 10 16 0.00 0.00
2:53 am 02:53 Clear 84 28.9 42 5.6 23 23 W 5 7 29.81 1009 10 16 0.00 0.00
3:53 am 03:53 Clear 82 27.8 42 5.6 24 24 W 9 15 29.81 1010 10 16 0.00 0.00
4:53 am 04:53 Clear 81 27.2 41 5 24 24 NNW 9 15 29.82 1010 10 16 0.00 0.00
5:53 am 05:53 Sunny 80 26.7 42 5.6 26 26 NNW 9 15 29.83 1010 10 16 0.00 0.00
6:53 am 06:53 Sunny 83 28.3 42 5.6 24 24 WNW 6 9 29.85 1011 10 16 0.00 0.00
7:53 am 07:53 Sunny 87 30.6 43 6.1 21 21 VRB 3 6 29.86 1011 10 16 0.00 0.00
8:53 am 08:53 Sunny 91 32.8 42 5.6 18 18 WNW 10 17 29.87 1012 10 16 0.00 0.00
9:53 am 09:53 Sunny 93 33.9 42 5.6 17 17 WNW 5 7 29.87 1011 10 16 0.00 0.00
10:53 am 10:53 Sunny 96 35.6 42 5.6 15 15 Calm 29.85 1011 10 16 0.00 0.00
11:53 am 11:53 Sunny 98 36.7 43 6.1 15 15 Calm 29.84 1011 10 16 0.00 0.00
12:53 pm 12:53 Sunny 101 38.3 39 3.9 12 12 S 15 24 29.82 1010 10 16 0.00 0.00
1:53 pm 13:53 Sunny 102 38.9 35 1.7 10 10 SW 14 22 29.80 1009 10 16 0.00 0.00
2:53 pm 14:53 Sunny 103 39.4 28 -2.2 7 7 SW 20 31 29.78 1008 10 16 0.00 0.00
3:53 pm 15:53 Sunny 102 38.9 34 1.1 9 9 SSE 14 22 29.75 1008 10 16 0.00 0.00
4:53 pm 16:53 Sunny 103 39.4 33 0.6 9 9 SW 13 20 29.73 1007 10 16 0.00 0.00
5:53 pm 17:53 Sunny 103 39.4 30 -1.1 8 8 S 14 22 29.72 1007 10 16 0.00 0.00
6:53 pm 18:53 Sunny 102 38.9 29 -1.7 8 8 SW 14 22 29.72 1007 10 16 0.00 0.00
7:53 pm 19:53 Sunny 100 37.8 29 -1.7 8 8 SW 8 13 29.74 1007 10 16 0.00 0.00
8:53 pm 20:53 Clear 97 36.1 28 -2.2 9 9 WSW 16 26 29.75 1007 10 16 0.00 0.00
9:53 pm 21:53 Clear 95 35 30 -1.1 10 10 WSW 7 11 29.78 1009 10 16 0.00 0.00
10:53 pm 22:53 Clear 92 33.3 32 0 12 12 WSW 5 7 29.79 1009 10 16 0.00 0.00
11:53 pm 23:53 Clear 90 32.2 32 0 13 13 Calm 29.80 1009 10 16 0.00 0.00

Powered by AerisWeather